Regional Weather Roundup
Issued by NWS

Home | Current Version | Previous Version | Graphics & Text | Print | Product List | Glossary On
Versions: 1 2 3 4 5 6 7 8 9 10 11 12 13 14 15 16 17 18 19 20 21 22 23 24 25 26 27 28 29 30 31 32 33 34 35 36 37 38 39 40 41 42 43 44 45 46 47 48 49 50
000
ASUS43 KMKX 040421
RWRWI

WISCONSIN REGIONAL WEATHER ROUNDUP
NATIONAL WEATHER SERVICE MILWAUKEE/SULLIVAN WI
1100 PM CDT FRI JUL 03 2015

NOTE: "FAIR" INDICATES FEW OR NO CLOUDS BELOW 12,000 FEET WITH NO
SIGNIFICANT WEATHER AND/OR OBSTRUCTIONS TO VISIBILITY.

WIZ001-002-006>008-014>016-023>028-040500-
NORTHWEST WISCONSIN

CITY           SKY/WX    TMP DP  RH WIND       PRES   REMARKS
SUPERIOR ARPT  CLEAR     60  58  93 CALM      29.89R
ASHLAND        PTCLDY    64  63  96 CALM      29.89R FOG
HAYWARD        CLEAR     62  60  93 CALM      29.92R
SIREN          MOCLDY    67  62  83 CALM      29.91R
CUMBERLAND     LGT RAIN  68  61  77 CALM      29.92R
RICE LAKE      LGT RAIN  67  61  80 CALM      29.93R
CHETEK         NOT AVBL
LADYSMITH      PTCLDY    66  60  79 CALM      29.93S
EAU CLAIRE     PTCLDY    68  58  70 SW5       29.91R
MENOMONIE      PTCLDY    68  58  71 SW3       29.92R
NEW RICHMOND   MOCLDY    67  59  75 SW5       29.92S
OSCEOLA        CLEAR     64  64 100 E3        29.94S
$$

WIZ003>005-009-010-017-018-040500-
NORTH CENTRAL WISCONSIN

CITY           SKY/WX    TMP DP  RH WIND       PRES   REMARKS
MANITOWISH WTR MOCLDY    59  59 100 CALM      29.92F FOG
ARBOR VITAE    CLOUDY    61  59  93 CALM      29.93S
WOODRUFF       CLOUDY    61  59  93 CALM      29.93S
RHINELANDER    CLOUDY    63  59  87 W7        29.93F
EAGLE RIVER    PTCLDY    60  60 100 CALM      29.92S
LAND O LAKES   PTCLDY    60  55  85 CALM      29.93R HAZE
PHILLIPS       MOCLDY    66  60  81 SE10      29.93R
TOMAHAWK       RAIN      62  59  91 W5        29.94S
MEDFORD        PTCLDY    62  58  86 CALM      29.94S
MERRILL        CLOUDY    64  59  85 CALM      29.93F
$$

WIZ029-030-035-036-043>047-040500-
CENTRAL WISCONSIN

CITY           SKY/WX    TMP DP  RH WIND       PRES   REMARKS
WAUSAU         MOCLDY    68  57  68 NW3       29.91R
MOSINEE        PTCLDY    63  55  77 SW5       29.94S
MARSHFIELD     PTCLDY    64  56  75 CALM      29.94R
STEVENS POINT  PTCLDY    63  56  79 CALM      29.94R
WAUPACA        CLEAR     64  60  87 CALM      29.93R
WAUTOMA        CLEAR     62  60  93 CALM      29.93R
WISC RAPIDS    PTCLDY    62  57  83 CALM      29.94R
CAMP DOUGLAS   PTCLDY    58  58 100 CALM      29.93R
$$

WIZ011>013-019>022-031-037>040-048>050-040500-
NORTHEAST WISCONSIN

CITY           SKY/WX    TMP DP  RH WIND       PRES   REMARKS
ANTIGO         CLOUDY    63  57  83 W5        29.93F
SHAWANO        PTCLDY    67  59  76 CALM      29.91S
OCONTO         CLEAR     59  59  97 CALM      29.89S
STURGEON BAY   CLEAR     61  52  72 SW7       29.92S
GREEN BAY      CLEAR     65  57  75 CALM      29.91R
MANITOWOC      CLOUDY    63  54  72 MISG      29.92S
APPLETON       MOCLDY    64  55  72 SW6       29.92R
CLINTONVILLE   PTCLDY    61  57  88 CALM      29.91R
OSHKOSH        CLEAR     65  56  72 SW6       29.91S
$$

WIZ032>034-041-042-053>061-040500-
SOUTHWEST WISCONSIN

CITY           SKY/WX    TMP DP  RH WIND       PRES   REMARKS
LA CROSSE      CLEAR     65  60  84 SE5       29.92S
SPARTA         CLEAR     59  57  93 CALM      29.94S
VIROQUA        CLEAR     65  59  80 SW3       29.95S
BOSCOBEL       CLEAR     59  57  93 CALM      29.94R
PRAIRIE DU CHI CLEAR     62  58  89 CALM      29.95R
PLATTEVILLE    CLEAR     64  52  65 CALM      29.96R
$$

WIZ056-057-062-063-064-067-068-040500-
SOUTH CENTRAL WISCONSIN

CITY           SKY/WX    TMP DP  RH WIND       PRES   REMARKS
REEDSBURG      CLEAR     60  58  95 CALM      29.94S
BARABOO/DELLS  CLEAR     62  56  79 CALM      29.94S
LONE ROCK      CLEAR     60  57  89 CALM      29.95R
MINERAL POINT  CLEAR     64  54  68 CALM      29.96R
MADISON        CLEAR     62  54  74 CALM      29.94R
MIDDLETON      CLEAR     60  58  93 CALM      29.96R
WATERTOWN      CLEAR     58  58 100 CALM      29.94R
MONROE         CLEAR     66  52  59 W8        29.95S
JANESVILLE     CLEAR     63  61  94 CALM      29.94R
$$

WIZ051-052-058>065-066-070>072-040500-
SOUTHEAST WISCONSIN

CITY           SKY/WX    TMP DP  RH WIND       PRES   REMARKS
MILWAUKEE      MOCLDY    63  51  65 S5        29.94R
WAUKESHA       CLEAR     61  52  72 S5        29.96R
MILWAUKEE/TIMM CLEAR     61  48  63 CALM      29.95R
RACINE         CLEAR     60  53  77 SW3       29.96R
BURLINGTON     CLEAR     56  54  95 CALM      29.95R
KENOSHA        CLEAR     58  53  84 CALM      29.95R
FOND DU LAC    CLEAR     65  56  72 SW6       29.92R
SHEBOYGAN      CLEAR     57  52  83 SW3       29.93R
WEST BEND      CLEAR     57  52  82 CALM      29.94R
JUNEAU         CLEAR     62  54  75 CALM      29.95R
$$

LSZ147-162-040500-
LAKE SUPERIOR

STATION/POSITION TIME  TEMP    WIND        PRES    WAVE
                       AIR SEA DIR/SP/G            HT/PER
                 (UTC) (F)     (DEG/KT/KT) (MB)    (FT/S)
W MID LAKE BUOY  0350   45 39   60/  6/  8 1012.4R   1/ 4
DEVILS ISLAND    0400   67     350/  7/  8 1012.0R
SAXON HARBOR     0300   66      CALM  /  5 1011.2
$$

LMZ867-665-643>646-040500-
LAKE MICHIGAN

STATION/POSITION TIME  TEMP    WIND        PRES    WAVE
                       AIR SEA DIR/SP/G            HT/PER
                 (UTC) (F)     (DEG/KT/KT) (MB)    (FT/S)
CHAMBERS ISLAND  0300   67     170/  4/  8 1011.9R
N MID LAKE BUOY  0350   49 43  190/  8/  8 1012.2R   2/ 4
NORTHPORT PIER   0300   64     180/  3/  7 1011.9R
SISTER BAY       0344   65     180/  7/  9   N/A
ALGOMA LAKESHORE 0325          210/  7/  8   N/A
KEWAUNEE LAKESHO 0300   63     170/  2/  4 1012.1R
SHEBOYGAN LAKESH 0400   63     210/  8/  9 1013.6R
PORT WASHINGTON  0300   62     180/  1/  2 1014.2
ATWATER BUOY     0400   63 61  180/  6/  6 1015.1R
MILWAUKEE LAKESH 0400   65     200/  4/  5   N/A
KENOSHA   LAKESH 0400   64     220/  4/  6 1014.2R
$$

TC  - TEMPERATURE IN CELSIUS
VSB - VISIBILITY IN STATUTE MILES
WCI - WIND CHILL INDEX
HX  - HEAT INDEX



USA.gov is the U.S. government's official web portal to all federal, state and local government web resources and services.